Tracking 30995 objects as of 7-Jul-2025
HD Live streaming from Space Station
objects crossing your sky now

FENGYUN 1C DEB

Track FENGYUN 1C DEB now!
10-day predictions


NORAD ID: 32425
Int'l Code: 1999-025DAM
Perigee: 674.9 km
Apogee: 1,015.9 km
Inclination: 96.7 °
Period: 101.7 minutes
Semi major axis: 7216 km
RCS: 0.003 m2 (small)
Launch date: May 10, 1999
Source: People's Republic of China (PRC)
Launch site: Taiyaun Space Center, China (TSC)

Note: This is SATELLITE DEBRIS
Your satellite tracking list
Your tracking list is empty




NASA's NSSDC Master Catalog

Two Line Element Set (TLE):
1 32425U 99025DAM 25183.77676649  .00000836  00000-0  33211-3 0  9992
2 32425  96.6917  12.1629 0236305  71.1301 291.5342 14.16192017672282
Source of the keplerian elements: AFSPC